Regional Weather Roundup
Issued by NWS

Home | Current Version | Previous Version | Graphics & Text | Print | Product List | Glossary On
Versions: 1 2 3 4 5 6 7 8 9 10 11 12 13 14 15 16 17 18 19 20 21 22 23 24 25 26 27 28 29 30 31 32 33 34 35 36 37 38 39 40 41 42 43 44 45 46 47 48 49 50
000
ASUS45 KBOU 201807
RWRCO

WEATHER ROUNDUP FOR COLORADO
NATIONAL WEATHER SERVICE DENVER/BOULDER CO
1100 AM MST SAT DEC 20 2014

NOTE: "FAIR" INDICATES FEW OR NO CLOUDS BELOW 12000 FEET WITH NO
SIGNIFICANT WEATHER AND/OR OBSTRUCTIONS TO VISIBILITY.

COZ001>005-013-030-031-201900-
...NORTHWEST COLORADO...

CITY           SKY/WX    TMP DP  RH WIND       PRES   REMARKS
CRAIG          CLOUDY    30  23  75 E8        30.13S WCI  22
HAYDEN         CLOUDY    25  19  80 SE6       30.12F WCI  18
MEEKER         CLOUDY    29  22  75 NE5       30.12F WCI  24
MOUNT WERNER   NOT AVBL
STEAMBOAT SPGS CLOUDY    23  19  85 CALM      30.12F
WALDEN         CLOUDY    30  21  69 S10G16    30.06F WCI  21
$$

COZ006>008-011-201900-
...WEST CENTRAL VALLEYS...

CITY           SKY/WX    TMP DP  RH WIND       PRES   REMARKS
GRAND JUNCTION PTSUNNY   35  25  66 S6        30.18F WCI  30
MONTROSE       CLOUDY    30  20  66 CALM      30.20F
EAGLE          CLOUDY    21  18  86 CALM      30.19F
RIFLE          CLOUDY    30  22  72 CALM      30.18F
DELTA          CLOUDY    32  25  74 CALM      30.20F
NUCLA          CLOUDY    32  23  69 SE6       30.22F WCI  26
$$

COZ017>023-064>068-201900-
...SOUTHWEST COLORADO...

CITY           SKY/WX    TMP DP  RH WIND       PRES   REMARKS
DURANGO        SUNNY     31  23  72 S3        30.17F
CORTEZ         MOSUNNY   35  23  61 CALM      30.20F
PAGOSA SPRINGS SUNNY     30  19  65 CALM      30.15F
TELLURIDE      CLOUDY    29  20  68 CALM      30.16F
WOLF CREEK PAS SUNNY     27  10  50 MISG      30.15S
$$

COZ009-010-012-014-032>034-037-058>063-201900-
...CENTRAL COLORADO...

CITY           SKY/WX    TMP DP  RH WIND       PRES   REMARKS
ASPEN          PTSUNNY   24  15  68 CALM      30.11F
BUENA VISTA    MOSUNNY   32  11  41 E5        30.08F WCI  28
COPPER MTN     LGT SNOW  25  18  74 S7        30.08F WCI  17
BERTHOUD PASS  CLOUDY    14   9  79 MISG      30.04S
COTTONWOOD PAS PTSUNNY   34  12  40 S3        30.08F
GUNNISON       MOSUNNY   16   7  67 CALM      30.23F
KREMMLING      CLOUDY    21  12  68 CALM      30.14F
LEADVILLE      PTSUNNY   29  15  56 N9        30.06F WCI  20
MONARCH PASS   CLOUDY    14  12  92 MISG      30.19F
SALIDA         MOSUNNY   36  12  38 NW3       30.15F
SUNLIGHT       LGT SNOW N/A N/A N/A CALM      30.12F
WILKERSON PASS MOSUNNY   27  12  54 W6        30.11F WCI  20
$$

COZ069>075-201900-
...SAN LUIS VALLEY/SANGRE DE CRISTO MOUNTAINS...

CITY           SKY/WX    TMP DP  RH WIND       PRES   REMARKS
ALAMOSA        MOSUNNY   26  15  63 CALM      30.15F
LA VETA PASS   NOT AVBL
SAGUACHE       SUNNY     30  12  47 S3        30.15F
$$

COZ035-036-038>040-201900-
...NORTHERN COLORADO FRONT RANGE...

CITY           SKY/WX    TMP DP  RH WIND       PRES   REMARKS
DENVER INTL AP CLOUDY    34  21  59 N6        30.00F WCI  29
DMNS CITY PARK   N/A     39  20  45 N3G13     30.00S
AURORA         PTSUNNY   43  19  39 SW7       30.00F
FRONT RANGE AP NOT AVBL
ERIE MUNI ARPT   N/A     34  21  60 NW5       30.02F WCI  30
BOULDER MUN AP CLOUDY    36  18  48 N6        30.02S
CENTENNIAL     CLOUDY    43  23  45 CALM      29.99F
BROOMFIELD     PTSUNNY   37  18  44 VRB5      30.02R
FORT COLLINS   PTSUNNY   36  19  51 W3        30.03F
LONGMONT       PTSUNNY   38  23  55 CALM      30.05S
$$

COZ041-046-047-076>085-087-088-201900-
...PIKES PEAK/PALMER DIVIDE AND SOUTHERN FOOTHILLS...

CITY           SKY/WX    TMP DP  RH WIND       PRES   REMARKS
COLO. SPRINGS  PTSUNNY   48  12  23 S5        30.01F
A. F. ACADEMY  CLOUDY    45  14  29 VRB2      30.00F
ELLICOTT       NOT AVBL
FALCON         PTSUNNY   48  11  22 S7        30.02F
FORT CARSON    PTSUNNY   47  14  26 VRB1      29.99F
LIMON          PTSUNNY   47  18  31 S5        30.01F
MONUMENT HILL  CLOUDY    41  18  38 W6        30.01F
TRINIDAD       CLOUDY    42  14  32 W6        30.03F
$$

COZ042>045-048>051-090-091-201900-
...NORTHEAST COLORADO...

CITY           SKY/WX    TMP DP  RH WIND       PRES   REMARKS
GREELEY ARPT   CLOUDY    30  18  59 CALM      30.00F
AKRON          CLOUDY    34  22  61 NW8       30.01F WCI  27
BURLINGTON     MOSUNNY   45  27  49 W10       30.01F
WRAY           CLOUDY    35  28  74 W3        30.02F
STERLING       CLOUDY    27  25  93 S8        30.01F WCI  18
HOLYOKE        CLOUDY    37  30  75 W12       30.01F
FORT MORGAN    CLOUDY    26  20  76 W8        30.02F WCI  18
$$

COZ086-089-092>099-201900-
...SOUTHEAST COLORADO...

CITY           SKY/WX    TMP DP  RH WIND       PRES   REMARKS
PUEBLO         PTSUNNY   39  20  46 CALM      30.01F
LA JUNTA       PTSUNNY   35  25  66 CALM      30.03F
LAMAR          PTSUNNY   36  27  69 W10       30.03F
SPRINGFIELD      N/A     49  20  31 SE5       30.00F
$$


USA.gov is the U.S. government's official web portal to all federal, state and local government web resources and services.